Dewpoint
24 27 30 39 40 37 36 35 39 41 41 32 38 48 51 52 52 52 53 53 53 52 54 55 54 55 57 56 54 55 53 55 56 52 52 53 52 52 55 54 55 54 54 54
23 21 27 30 40 39 32 30 30 32 35 32 44 45 50 50 50 49 52 53 53 54 54 53 54 55 57 57 55 54 55 54 55 57 56 54 53 54 54 55 55 54 53 53
23 22 22 26 29 28 30 29 30 38 41 44 43 40 49 49 49 48 49 53 53 53 54 53 53 56 57 56 56 54 54 55 54 56 57 55 57 56 52 55 53 54 53 53
22 22 21 29 30 32 32 32 32 34 41 39 47 34 47 48 48 48 47 50 50 54 55 54 54 55 57 57 55 54 53 55 53 55 56 54 56 52 54 54 53 56 54 53
21 21 24 26 34 34 30 36 36 36 42 43 45 39 48 50 47 47 47 48 49 53 55 55 54 55 58 55 55 55 54 54 53 55 55 55 53 53 55 53 53 53 55 53
21 22 24 27 27 28 34 37 42 40 42 40 41 40 45 48 47 46 47 48 49 50 55 54 53 55 56 54 55 55 55 54 54 55 55 54 53 52 53 55 55 52 55 54
23 22 24 30 29 31 31 35 34 32 39 38 41 42 43 43 39 36 47 47 49 49 53 53 53 54 54 53 53 54 55 54 54 53 54 54 53 54 55 55 54 53 55 54
22 23 34 33 32 30 34 35 33 29 32 31 38 38 38 39 41 45 41 46 48 46 51 51 52 52 54 55 52 53 55 55 54 53 53 53 53 54 56 54 54 54 55 53
25 26 34 32 31 32 37 35 39 36 34 32 34 44 42 45 50 53 41 41 45 48 49 50 51 55 55 57 54 53 53 54 53 54 54 53 54 53 53 53 53 54 55 54
29 34 34 34 33 37 36 40 37 39 30 29 34 36 35 42 47 46 42 41 44 47 49 50 51 55 56 57 55 52 53 54 53 54 53 54 55 53 53 54 55 54 54 54
33 35 36 33 34 35 37 43 46 44 37 34 35 34 41 41 41 41 43 46 50 50 48 51 52 57 57 57 54 53 50 53 52 52 53 54 53 53 54 53 53 55 54 56
39 35 33 33 35 34 37 41 42 40 35 37 37 36 46 45 47 50 48 50 53 52 50 54 53 55 56 55 53 52 50 52 52 52 52 53 53 53 53 54 55 55 55 55
42 43 37 31 34 38 34 32 38 44 46 38 36 37 48 50 50 51 48 52 50 53 59 58 52 52 54 55 54 53 51 48 51 52 52 53 53 53 53 55 55 55 54 54
48 40 38 35 33 33 30 34 38 42 40 38 38 38 47 50 47 51 52 50 50 56 57 62 60 53 53 55 55 52 50 50 48 48 49 52 53 55 55 56 56 55 54 54
42 36 39 36 32 30 32 34 32 39 39 35 33 40 46 51 49 52 51 51 53 54 56 55 56 54 55 56 55 54 53 53 48 48 48 49 52 53 54 54 55 55 55 55
44 39 40 38 35 34 32 31 31 32 34 35 36 40 47 52 52 53 52 54 51 52 56 53 51 55 55 56 56 55 54 53 50 49 48 49 50 53 54 54 55 55 55 55
50 44 45 40 40 36 33 34 33 34 35 38 36 43 48 50 50 52 52 52 51 49 53 56 57 55 55 55 56 56 53 53 52 50 50 50 50 51 52 52 54 54 55 55
45 49 44 40 39 31 34 39 37 41 44 43 43 45 46 45 46 46 51 48 47 50 54 56 56 57 57 56 57 56 55 53 53 51 50 50 49 50 50 52 53 53 55 56
45 44 39 37 37 37 43 46 47 43 45 50 49 45 48 48 47 46 51 48 49 52 53 57 58 57 55 56 55 54 53 52 51 51 50 49 49 49 51 52 53 54 56 57
50 49 45 41 39 34 46 49 48 47 38 51 49 49 49 47 44 46 50 51 52 53 55 56 57 58 57 56 54 53 51 48 48 48 49 49 49 49 50 51 53 55 56 57
47 44 37 41 40 43 49 49 52 41 45 52 46 50 51 46 49 50 52 52 52 53 54 57 58 58 56 55 52 49 49 49 49 48 48 48 49 50 53 55 57 57 58 58
45 44 44 46 41 37 50 50 43 50 54 48 48 51 51 49 51 52 52 51 51 48 50 56 56 56 54 52 52 53 55 58 53 54 54 54 55 58 60 57 58 59 58 57
44 47 47 46 45 50 55 55 58 58 58 56 55 53 52 49 48 50 53 53 51 48 49 55 55 55 53 54 53 52 56 59 60 58 59 60 60 60 60 58 58 57 57 56
48 51 50 48 46 54 55 59 57 54 55 59 56 54 50 50 50 52 54 54 53 53 50 53 55 55 56 56 54 57 55 59 60 59 58 56 57 54 56 57 55 55 54 51
48 53 51 50 53 53 53 56 56 54 55 60 53 52 50 50 53 55 55 57 57 57 57 56 58 59 60 60 61 59 56 54 54 53 52 49 49 47 46 47 49 48 46 43
51 51 51 50 54 56 54 57 58 57 57 53 50 51 52 56 58 57 58 58 58 58 58 58 57 57 57 55 52 51 51 50 51 48 49 48 45 45 45 46 47 44 41 40
Lifted_Index
0 0 -0 -0 -1 -1 -1 -1 -1 -1 -1 -1 -1 -2 -2 -2 -1 -1 -0 -0 0 0 0 1 2 3 3 3 4 6 7 7 7 7 7 6 6 6 5 5 5 6 6 6
0 -0 -0 -1 -1 -0 -0 -0 -1 -1 -1 -1 -1 -1 -1 -2 -1 -1 -1 -0 -0 -0 0 0 1 2 3 3 3 5 6 7 6 6 6 6 5 5 5 5 5 5 6 6
0 -0 -0 -0 -0 -0 -0 -0 -0 -0 -1 -0 0 -0 -1 -2 -2 -1 -1 -1 -0 -0 -0 -0 0 1 2 2 3 4 5 6 6 6 5 5 5 5 5 5 5 5 5 6
0 0 -0 -0 -0 -0 -0 -0 0 0 0 0 0 0 -1 -2 -2 -1 -1 -1 -1 -1 -1 -1 -0 0 1 2 2 3 5 6 6 5 5 5 5 5 5 5 5 4 5 5
0 0 -0 -0 0 0 -0 -0 -0 -0 0 0 0 -0 -1 -2 -2 -2 -1 -1 -1 -1 -1 -1 -1 -0 1 1 2 3 4 5 6 5 5 5 5 5 5 5 4 4 4 5
0 0 -0 0 0 0 -0 -0 -0 -0 -0 -0 -0 -0 -1 -1 -1 -2 -2 -2 -1 -1 -1 -1 -1 -0 0 1 1 2 4 5 5 5 5 5 5 5 5 4 4 4 4 4
0 0 -0 -0 0 0 -0 -0 -0 -0 -0 -0 -1 -0 -0 -0 -0 -1 -2 -2 -2 -1 -1 -1 -1 -1 -0 0 1 2 3 4 5 5 5 5 5 5 4 4 4 4 4 4
0 -0 -0 -0 0 -0 -0 -0 -0 -0 -0 -0 -0 -0 -0 -0 -0 -0 -1 -2 -2 -1 -1 -1 -1 -1 -1 -0 1 2 3 4 4 5 5 5 4 4 4 4 4 4 4 4
0 -0 -0 0 0 -0 -1 -1 -1 -1 -0 -0 -0 -0 -0 -0 -1 -0 -1 -1 -2 -2 -2 -2 -2 -2 -2 -1 -0 1 3 3 4 4 4 4 4 4 4 4 4 4 4 4
-0 -0 -0 -0 -0 -0 -0 -0 -0 -0 -0 -0 -0 -0 -0 -0 -1 -1 -1 -1 -1 -2 -2 -2 -2 -2 -2 -2 -1 1 2 3 4 4 4 4 4 4 4 4 4 4 4 4
-0 -1 -1 -0 -0 -0 -0 -0 -0 -1 -1 -1 -0 -0 -1 -1 -1 -1 -1 -1 -1 -1 -1 -2 -2 -3 -3 -2 -1 -0 1 2 3 4 4 4 4 4 4 4 4 3 3 3
-0 -0 -0 0 -0 -0 -0 -0 -1 -1 -1 -0 -0 -0 -1 -1 -1 -1 -0 -1 -1 -0 -1 -1 -2 -3 -3 -3 -2 -1 0 2 3 3 4 4 4 4 3 3 3 2 2 2
-0 -0 0 1 0 0 -0 -0 -1 -1 -1 -0 -0 -0 -1 -2 -1 -0 0 -0 -0 0 -0 -1 -2 -3 -3 -3 -2 -1 -0 1 2 3 4 4 3 3 3 2 2 2 2 2
0 0 1 1 1 0 -0 -0 -1 -1 -0 -0 -0 -1 -1 -1 -1 -0 -0 -0 -0 0 -0 -1 -1 -2 -3 -3 -2 -1 -0 1 2 3 3 4 3 3 3 2 2 2 2 2
0 1 1 1 1 0 -0 -0 -0 -1 -0 -0 -1 -1 -2 -1 -1 -0 -0 -1 -0 -0 -0 -0 -1 -2 -2 -2 -2 -1 -1 -0 1 2 3 3 3 3 2 2 2 2 2 2
-0 0 0 0 0 0 -0 -0 -0 -0 -0 -0 -1 -2 -2 -1 -1 -1 -1 -1 -0 -1 -1 -2 -2 -2 -2 -2 -1 -1 -1 -1 -0 1 2 3 3 2 2 2 2 1 1 1
-1 -1 -1 -0 -0 -0 -0 -0 -0 -0 -1 -1 -2 -2 -2 -1 -1 -1 -1 -0 -0 -1 -2 -3 -3 -2 -2 -2 -1 -1 -1 -1 -1 0 1 2 2 2 2 2 1 1 0 0
-2 -2 -1 -1 -0 -0 -0 -1 -1 -1 -1 -1 -2 -2 -2 -2 -1 -1 -0 -0 -0 -1 -2 -3 -3 -2 -2 -1 -1 -1 -1 -1 -0 1 1 2 2 2 2 2 1 0 -0 -0
-2 -2 -1 -1 -0 -1 -1 -1 -1 -1 -1 -1 -2 -2 -2 -2 -1 -1 -1 -0 -1 -1 -2 -2 -2 -2 -1 -1 -1 -1 -1 -0 1 1 2 2 2 2 1 1 1 -0 -1 -1
-3 -2 -1 -1 -1 -1 -1 -1 -1 -1 -1 -1 -1 -2 -2 -2 -2 -1 -1 -1 -1 -1 -2 -2 -2 -1 -1 -0 -0 -0 -0 0 1 1 2 2 1 1 1 0 -0 -0 -1 -1
-3 -2 -2 -1 -0 -1 -1 -1 -1 -1 -1 -1 -2 -2 -2 -2 -2 -2 -2 -2 -1 -1 -1 -1 -1 -1 -0 0 0 0 0 -0 0 1 1 1 0 -0 -1 -1 -1 -1 -1 -1
-2 -2 -2 -1 -0 -1 -1 -1 -2 -2 -2 -2 -3 -3 -2 -2 -2 -2 -2 -1 -1 -1 -0 -1 -1 -0 0 1 1 0 -0 -1 -1 -1 -1 -1 -2 -2 -2 -2 -2 -1 -1 -1
-1 -2 -2 -1 -1 -2 -2 -2 -2 -2 -3 -3 -3 -3 -2 -2 -2 -2 -2 -2 -1 -0 -0 -0 0 0 1 1 1 0 -0 -1 -2 -2 -2 -2 -2 -2 -1 -1 -0 0 0 1
-1 -1 -1 -1 -1 -3 -3 -3 -2 -2 -3 -3 -3 -3 -2 -2 -2 -3 -3 -2 -2 -1 -1 -0 0 0 0 0 0 0 -0 -1 -1 -1 -0 -0 0 1 1 2 2 2 3 3
-1 -1 -1 -1 -2 -3 -3 -2 -2 -2 -2 -3 -2 -2 -2 -2 -3 -3 -3 -3 -2 -2 -1 -0 -0 -1 -1 -0 1 1 1 2 2 2 3 3 4 4 4 4 4 4 5 5
-1 -1 -1 -2 -2 -2 -2 -2 -2 -2 -3 -2 -2 -1 -2 -3 -4 -4 -3 -3 -3 -2 -1 -1 -1 -1 -1 0 1 2 4 4 4 4 5 6 6 6 5 5 5 5 6 6